Tracking 18980 objects as of 17-Feb-2018
HD Live streaming from Space Station
objects crossing your sky now

CZ-4 DEB

Track CZ-4 DEB now!
10-day predictions


NORAD ID: 26650
Int'l Code: 1999-057LG
Perigee: 629.4 km
Apogee: 646.8 km
Inclination: 98.5 °
Period: 97.3 minutes
Semi major axis: 7009 km
RCS: 0.0056 m2 (small)
Launch date: October 14, 1999
Source: People's Republic of China (PRC)
Launch site: Taiyaun Space Center, China (TSC)

Note: This is SATELLITE DEBRIS
aabbcc
Your satellite tracking list
Your tracking list is empty




NASA's NSSDC Master Catalog

Two Line Element Set (TLE):
1 26650U 99057LG  18048.11296590  .00000623  00000-0  91202-4 0  9992
2 26650  98.5221 152.7800 0012465 130.7192 351.7159 14.79477574947042
Source of the keplerian elements: AFSPC